Location: Asheville, NC
(35.6000°N, 82.5500°W)
Time: 03:21:21
(UTC-04:00)

Vanguard 1 - Pass Details

Date: 10 March 2018
Orbit: 650 x 3833 km, 34.3° (Epoch: 17 June)

Event Time Altitude Azimuth Distance (km) Brightness Sun altitude
Rises 10:28:43 0° 245° (WSW) 7,641 14.4 39.8°
Reaches altitude 10° 10:33:38 10° 244° (WSW) 6,795 14.3 40.5°
Maximum altitude 10:57:25 77° 163° (SSE) 3,624 14.0 43.7°
Drops below altitude 10° 11:15:07 10° 81° (E) 5,304 14.1 45.7°
Sets 11:18:24 0° 80° (E) 5,978 14.3 46.0°
